Regional Weather Roundup
Issued by NWS

Home | Current Version | Previous Version | Graphics & Text | Print | Product List | Glossary On
Versions: 1 2 3 4 5 6 7 8 9 10 11 12 13 14 15 16 17 18 19 20 21 22 23 24 25 26 27 28 29 30 31 32 33 34 35 36 37 38 39 40 41 42 43 44 45 46 47 48 49 50
000
ASUS43 KLSX 290859
RWRMO

WEATHER SUMMARY FOR MISSOURI
NATIONAL WEATHER SERVICE SPRINGFIELD MO
400 AM CDT TUE JUL 29 2014

NOTE: "FAIR" INDICATES FEW OR NO CLOUDS BELOW 12,000 FEET WITH NO
       SIGNIFICANT WEATHER AND/OR OBSTRUCTIONS TO VISIBILITY.
       CURRENT SKY AND/OR WEATHER CONDITIONS ARE NOT AVAILABLE FOR
       CHILLICOTHE AND FARMINGTON.

MOZ001>031-035>038-043-044-053-054-291000-
...NORTHERN AND WESTERN MISSOURI...

CITY           SKY/WX    TMP DP  RH WIND       PRES   REMARKS
KANSAS CTY INT CLEAR     64  57  78 N3        30.16S
KANSAS C DTWN  CLEAR     67  61  81 CALM      30.15F
LEE`S SUMMIT   CLEAR     64  59  83 CALM      30.16F
ST JOSEPH      CLEAR     56  55  97 W3        30.16F FOG
CHILLICOTHE      N/A     61  58  90 CALM      30.17F
KIRKSVILLE     CLEAR     58  55  90 NW5       30.16F

$$
MOZ066>068-077>081-088>096-101>105-291000-
...SOUTHWEST MISSOURI...

CITY           SKY/WX    TMP DP  RH WIND       PRES   REMARKS
SPRINGFIELD    CLEAR     60  55  83 CALM      30.16S
JOPLIN         CLEAR     62  58  86 CALM      30.15F

$$
MOZ032>034-039>042-045>050-055>058-069>072-291000-
...CENTRAL MISSOURI...

CITY           SKY/WX    TMP DP  RH WIND       PRES   REMARKS
COLUMBIA       CLEAR     59  54  83 CALM      30.15S
JEFFERSON CITY CLEAR     57  54  89 CALM      30.15S
ROLLA          CLEAR     54  50  86 CALM      30.14S
SEDALIA        CLEAR     61  56  83 CALM      30.16F
OSAGE BEACH    CLEAR     55  52  88 CALM      30.15F

$$
MOZ051-052-059>065-291000-
...EAST CENTRAL MISSOURI...

CITY           SKY/WX    TMP DP  RH WIND       PRES   REMARKS
ST LOUIS INTL  CLEAR     61  55  81 W3        30.13S
SPIRIT OF STL  CLEAR     54  52  93 W3        30.12S
ST CHARLES     CLEAR     54  52  93 CALM      30.12S

$$
MOZ072>076-082>087-097>100-106>115-291000-
...SOUTH CENTRAL AND SOUTHEAST MISSOURI...

CITY           SKY/WX    TMP DP  RH WIND       PRES   REMARKS
CAPE GIRARDEAU CLEAR     61  56  83 CALM      30.11R
FARMINGTON     CLEAR     55  52  88 CALM      30.15S
POPLAR BLUFF   CLEAR     61  55  81 NW3       30.10S
WEST PLAINS    CLEAR     59  54  83 N3        30.16S

$$


USA.gov is the U.S. government's official web portal to all federal, state and local government web resources and services.